Find Tianmu-1 qixiang xingzou 03

NORAD ID: 55973 Int'l Des: 2023-039 Owner: TIANMU Country: CN operational
LEOCIRCULARRETROGRADESSO

当前视图

正在加载3D地球...

About Tianmu-1 qixiang xingzou 03

Tianmu-1 qixiang xingzou 03 (NORAD 55973) is a satellite launched Mar 22, 2023 by TIANMU of CN. It operates in LEO, CIRCULAR, RETROGRADE, SSO orbit with a mass of 50.00 kg.

即将过境

Passes for default location (London). Set your location on the main map for personalized predictions.

高度历史

Loading altitude history...

两行轨道根数

1 55973U 23039A 26194.62379872 .00009171 00000-0 17725-3 0 9995
2 55973 97.5234 9.6438 0002720 31.2021 328.9390 15.48013820184921
Epoch: Jul 13, 2026 • Age: 9 hours

当前状态

高度 436.9 km
远地点 / 近地点 N/A
速度 7.65 km/s
星下点 -39.11°S, 82.64°E
发射日期 Mar 22, 2023
运行时间 3.3 years
类型 other

技术详情

分类 Payload
质量 50.00 kg
干质量 50.00 kg
总质量 50.00 kg
长度 1.50 m
直径 1.00 m
跨度 1.50 m
形状 Box
制造商 TIANMU
平台类型 Tianmu
阶段状态 In Orbit
所有者/国家 TIANMU/CN

Most Searched